Погода в Чанчжи

Китай     36°16′54″N   113°04′21″E
темп.,
°C
ветер,
м/с
пор.,
м/с
влажн.,
%
обл.,
%
осадки,
мм/ч
давл.,
гПа
погр.,
м
15 мая, сб
сб1523:00+18ююз1281100 0.1 1005109
02:00+17ююз1189100 0.1 100524
05:00+16всв229114 0.0 100437
08:00+18св138399 0.2 1005282
11:00+22в446197 0.3 10041211
14:00+21юв3566100 1.1 1003767
17:00+18всв3585100 2.3 1004369
20:00+13всв111789100 10.8 1008631
16 мая, вс
вс1623:00+9всв71387100 5.2 1012708
02:00+9всв71386100 8.9 1012629
05:00+9св6986100 1.0 1013448
08:00+9всв4787100 2.8 1015381
11:00+10св4786100 1.6 1016461
14:00+10с2389100 3.4 1015332
17:00+10с4680100 0.4 1015537
20:00+10с2382100 0.5 1016169
17 мая, пн
пн1723:00+10ссз1180100 0.0 101738
02:00+10ссз2479100 0.1 1016138
05:00+9ююз1182100 0.0 101515
08:00+13зсз22661 0.0 1016366
11:00+19ссз343843 0.0 10141069
14:00+22сз342583 0.0 10112157
17:00+23зсз24210 0.0 10102411
20:00+17з34490 0.0 101174
18 мая, вт
вт1823:00+15ю23544 0.0 101247
02:00+14юз346155 0.0 101359
05:00+13ююз1163100 0.0 101216
08:00+16з1253100 0.0 1013196
11:00+22з113396 0.0 1011763
14:00+25ююз2219100 0.0 10081858
17:00+25ю3320100 0.0 10072000
20:00+20ю511450 0.0 1009381
19 мая, ср
ср1923:00+17ю345216 0.0 101194
02:00+15ююз2253100 0.0 101023
05:00+14ююв1255100 0.0 100916
08:00+18з1144100 0.0 1009211
11:00+21юз1231100 0.0 1008486
14:00+24ю3320100 0.0 10051596
17:00+23ю4332100 0.0 10041222
20:00+19ю4944100 0.0 1006275